This is the latest recevied weather packets stored in our database for station/object DG3NAD-21. If no packets are shown the sender has not sent any weather packets the latest 10 day(s).
| Time | Temp. | Humidity | Pressure | Rain* | Wind** | Luminosity | Snow |
|---|---|---|---|---|---|---|---|
| 1787946098 | 22.78° C | 59% | 1016.5 hPa | - | - | - | - |
| 1787945198 | 22.78° C | 58% | 1016.5 hPa | - | - | - | - |
| 1787944298 | 23.33° C | 58% | 1016.3 hPa | - | - | - | - |
| 1787943398 | 23.33° C | 57% | 1016.2 hPa | - | - | - | - |
| 1787942497 | 23.89° C | 56% | 1015.8 hPa | - | - | - | - |
| 1787941597 | 24.44° C | 57% | 1015.8 hPa | - | - | - | - |
| 1787940697 | 25° C | 58% | 1015.3 hPa | - | - | - | - |
| 1787939797 | 25° C | 57% | 1015.2 hPa | - | - | - | - |
| 1787938897 | 25° C | 56% | 1015.1 hPa | - | - | - | - |
| 1787937997 | 25° C | 56% | 1014.6 hPa | - | - | - | - |
| 1787937097 | 25.56° C | 56% | 1014.8 hPa | - | - | - | - |
| 1787936197 | 25.56° C | 56% | 1014.3 hPa | - | - | - | - |
| 1787935297 | 25.56° C | 57% | 1014.4 hPa | - | - | - | - |
| 1787934396 | 25.56° C | 58% | 1014.3 hPa | - | - | - | - |
| 1787933496 | 25.56° C | 58% | 1014.4 hPa | - | - | - | - |
| 1787932596 | 25.56° C | 58% | 1014.4 hPa | - | - | - | - |
| 1787931696 | 26.11° C | 57% | 1014.5 hPa | - | - | - | - |
| 1787930796 | 26.11° C | 57% | 1014.7 hPa | - | - | - | - |
| 1787929896 | 25.56° C | 58% | 1014.9 hPa | - | - | - | - |
| 1787928995 | 26.11° C | 57% | 1015 hPa | - | - | - | - |
| 1787928095 | 26.11° C | 57% | 1014.8 hPa | - | - | - | - |
| 1787927195 | 25.56° C | 57% | 1015 hPa | - | - | - | - |
| 1787926294 | 25.56° C | 59% | 1015.3 hPa | - | - | - | - |
| 1787925394 | 25.56° C | 59% | 1015.7 hPa | - | - | - | - |
| 1787924495 | 25.56° C | 58% | 1015.8 hPa | - | - | - | - |
* Rain since midnight (hover to see other rain measurements)
** Current wind speed in m/s (hover to see current wind gust speed)